Chicago Executive, IL

12:20 AM CDT on May 28, 2018 (GMT -0500)
Chicago Executive

Weather History for KPWK - November, 2011

Change the Weather History Date:

Sunday, November 6, 2011

  Actual Average Record
Temperature  
Mean Temperature 52 °F 44 °F  
Max Temperature 59 °F 53 °F 69 °F (2016)
Min Temperature 44 °F 36 °F 24 °F (2010)
Degree Days  
Heating Degree Days 14 21  
Month to date heating degree days 118  
Since 1 July heating degree days 639  
Cooling Degree Days 0 0  
Month to date cooling degree days 0  
Year to date cooling degree days 789  
Growing Degree Days 2 (Base 50)    
Moisture  
Dew Point 42 °F    
Average Humidity 64    
Maximum Humidity 74    
Minimum Humidity 54    
Precipitation  
Precipitation 0.00 in 0.10 in 0.98 in (2000)
Month to date precipitation 0.65  
Year to date precipitation 29.28  
Sea Level Pressure  
Sea Level Pressure 30.05 in    
Wind  
Wind Speed 13 mph (South)    
Max Wind Speed 25 mph    
Max Gust Speed 36 mph    
Visibility 10 miles    
Events      
T = Trace of Precipitation, MM = Missing Value Source: NWS Daily Summary

Daily Weather History Graph

Daily Weather History Graph

Search for Another Location

Airport or City:

Astronomy

Nov. 06, 2011 Rise Set
Actual Time 6:30 AM CST 4:39 PM CST
Civil Twilight 6:00 AM CST 5:08 PM CST
Nautical Twilight 5:27 AM CST 5:42 PM CST
Astronomical Twilight 4:54 AM CST 6:14 PM CST
Moon 2:26 PM CST (11/6) 2:33 AM CST (11/6)
Length of Visible Light 11h 08m
Length of Day
10h 09m
Waxing Gibbous, 86% of the Moon is Illuminated
Nov 6
Waxing Gibbous
Nov 10
Full
Nov 18
Last Quarter
Nov 25
New
Dec 2
First Quarter

Hourly Weather History & Observations

Time (CST) Temp. Windchill Dew Point Humidity Pressure Visibility Wind Dir Wind Speed Gust Speed Precip Events Conditions
12:52 AM 46.9 °F - 30.9 °F 54% 30.07 in 10.0 mi South 8.1 mph - N/A   Clear
1:52 AM 45.0 °F 40.6 °F 30.9 °F 58% 30.07 in 10.0 mi South 8.1 mph - N/A   Clear
1:52 AM 44.1 °F 40.1 °F 32.0 °F 63% 30.07 in 10.0 mi SSE 6.9 mph - N/A   Clear
2:52 AM 48.0 °F - 36.0 °F 63% 30.06 in 10.0 mi South 10.4 mph - N/A   Clear
3:52 AM 48.9 °F - 39.0 °F 69% 30.06 in 10.0 mi South 11.5 mph - N/A   Clear
4:52 AM 48.0 °F - 39.0 °F 71% 30.06 in 10.0 mi South 10.4 mph - N/A   Clear
5:52 AM 48.9 °F - 39.9 °F 71% 30.04 in 10.0 mi South 11.5 mph - N/A   Clear
6:52 AM 50.0 °F - 42.1 °F 74% 30.04 in 9.0 mi South 11.5 mph - N/A   Clear
7:52 AM 53.1 °F - 44.1 °F 71% 30.04 in 10.0 mi South 12.7 mph - N/A   Clear
8:52 AM 55.9 °F - 45.0 °F 67% 30.04 in 10.0 mi South 23.0 mph 32.2 mph N/A   Overcast
9:52 AM 57.9 °F - 46.0 °F 65% 30.03 in 10.0 mi South 25.3 mph 35.7 mph N/A   Mostly Cloudy
10:52 AM 59.0 °F - 46.0 °F 62% 30.03 in 10.0 mi South 18.4 mph 27.6 mph N/A   Overcast
11:52 AM 57.9 °F - 46.0 °F 65% 30.02 in 10.0 mi SSW 18.4 mph 27.6 mph N/A   Overcast
12:52 PM 57.9 °F - 45.0 °F 62% 30.01 in 10.0 mi South 16.1 mph 29.9 mph N/A   Overcast
1:52 PM 57.9 °F - 45.0 °F 62% 30.00 in 10.0 mi SSW 20.7 mph 32.2 mph N/A   Overcast
2:52 PM 57.9 °F - 45.0 °F 62% 30.01 in 10.0 mi SSW 19.6 mph 31.1 mph N/A   Mostly Cloudy
3:52 PM 57.9 °F - 45.0 °F 62% 30.03 in 10.0 mi SSW 18.4 mph 23.0 mph N/A   Overcast
4:52 PM 57.9 °F - 45.0 °F 62% 30.04 in 10.0 mi SSW 18.4 mph 31.1 mph N/A   Overcast
5:52 PM 57.9 °F - 45.0 °F 62% 30.05 in 10.0 mi SSW 16.1 mph - N/A   Overcast
6:52 PM 57.9 °F - 45.0 °F 62% 30.06 in 10.0 mi SSW 15.0 mph 21.9 mph N/A   Overcast
7:52 PM 59.0 °F - 44.1 °F 58% 30.07 in 10.0 mi SSW 16.1 mph 24.2 mph N/A   Overcast
7:59 PM 57.2 °F - 44.6 °F 63% 30.07 in 10.0 mi SSW 12.7 mph 24.2 mph N/A   Overcast
8:52 PM 57.0 °F - 44.1 °F 62% 30.09 in 10.0 mi SSW 12.7 mph 21.9 mph N/A   Scattered Clouds
9:52 PM 55.9 °F - 44.1 °F 64% 30.10 in 10.0 mi SSW 13.8 mph 20.7 mph N/A   Mostly Cloudy
10:52 PM 55.9 °F - 44.1 °F 64% 30.12 in 10.0 mi SSW 11.5 mph - N/A   Scattered Clouds